Aswan, Egypt

2:15 AM EET on March 24, 2017 (GMT +0200)
Aswan International

Weather History for HESN - July, 2013

Change the Weather History Date:

Monday, July 15, 2013

  Actual Average Record
Temperature  
Mean Temperature 94 °F -  
Max Temperature 107 °F 104 °F 112 °F (2012)
Min Temperature 81 °F 82 °F 70 °F (2016)
Cooling Degree Days 29    
Growing Degree Days 44 (Base 50)    
Moisture  
Dew Point 44 °F    
Average Humidity 17    
Maximum Humidity 45    
Minimum Humidity 4    
Precipitation  
Precipitation 0.00 in 0.00 in - ()
Sea Level Pressure  
Sea Level Pressure 29.68 in    
Wind  
Wind Speed 10 mph ()    
Max Wind Speed 22 mph    
Max Gust Speed -    
Visibility 6.0 miles    
Events      
Averages and records for this station are not official NWS values.
T = Trace of Precipitation, MM = Missing Value Source: Averaged Metar Reports

Daily Weather History Graph

Daily Weather History Graph

Search for Another Location

Airport or City:

Trip Planner

Search our weather history database for the weather conditions in past years. The results will help you decide how hot, cold, wet, or windy it might be!

Date:

Astronomy

Jul. 15, 2013 Rise Set
Actual Time 5:10 AM EET 6:39 PM EET
Civil Twilight 4:45 AM EET 7:04 PM EET
Nautical Twilight 4:15 AM EET 7:33 PM EET
Astronomical Twilight 3:44 AM EET 8:04 PM EET
Moon 11:17 AM EET (7/15) 11:07 PM EET (7/15)
Length of Visible Light 14h 18m
Length of Day
13h 28m
Waxing Crescent, 42% of the Moon is Illuminated
Jul 15
Waxing Crescent
Jul 16
First Quarter
Jul 22
Full
Jul 29
Last Quarter
Aug 6
New

Hourly Weather History & Observations

Time (EET) Temp. Heat Index Dew Point Humidity Pressure Visibility Wind Dir Wind Speed Gust Speed Precip Events Conditions
12:00 AM 89.6 °F - 42.8 °F 20% 29.68 in - WNW 12.7 mph - N/A   Clear
1:00 AM 87.8 °F - 42.8 °F 21% 29.68 in - NW 12.7 mph - N/A   Clear
2:00 AM 87 °F - 46 °F 15% 29.65 in 6 mi NW 11.5 mph - -  
2:00 AM 87.8 °F - 46.4 °F 24% 29.68 in - NW 11.5 mph - N/A   Clear
3:00 AM 86.0 °F 86.6 °F 62.6 °F 45% 29.68 in - NW 8.1 mph - N/A   Clear
4:00 AM 84.2 °F - 44.6 °F 25% 29.68 in - NNW 5.8 mph - N/A   Clear
5:00 AM 83 °F - 44 °F 16% 29.65 in 6 mi NNW 6.9 mph - -  
5:00 AM 82.4 °F - 44.6 °F 26% 29.68 in - NNW 6.9 mph - N/A   Clear
6:00 AM 82.4 °F - 46.4 °F 28% 29.68 in - North 4.6 mph - N/A   Clear
7:00 AM 84.2 °F - 48.2 °F 29% 29.71 in - NNW 5.8 mph - N/A   Clear
8:00 AM 88 °F - 50 °F 17% 29.69 in 6 mi North 9.2 mph - -  
8:00 AM 87.8 °F - 50.0 °F 27% 29.71 in - North 9.2 mph - N/A   Clear
9:00 AM 91.4 °F - 51.8 °F 26% 29.71 in - North 12.7 mph - N/A   Clear
10:00 AM 95.0 °F - 51.8 °F 23% 29.71 in - North 13.8 mph - N/A   Clear
11:00 AM 99 °F - 49 °F 11% 29.68 in 6 mi NNW 20.1 mph - -  
11:00 AM 98.6 °F - 50.0 °F 19% 29.71 in - NNW 10.4 mph - N/A   Clear
12:00 PM 100.4 °F - 46.4 °F 16% 29.71 in - NNW 9.2 mph - N/A   Clear
1:00 PM 104.0 °F - 46.4 °F 14% 29.68 in - North 9.2 mph - N/A   Clear
2:00 PM 105 °F - 44 °F 7% 29.61 in 6 mi North 9.2 mph - -  
2:00 PM 105.8 °F - 44.6 °F 13% 29.65 in - North 9.2 mph - N/A   Clear
3:00 PM 107.6 °F - 39.2 °F 10% 29.65 in - NW 6.9 mph - N/A   Clear
4:00 PM 107.6 °F - 37.4 °F 9% 29.65 in - WNW 9.2 mph - N/A   Clear
5:00 PM 107 °F - 36 °F 4% 29.61 in 6 mi WNW 22.4 mph - -  
5:00 PM 105.8 °F - 35.6 °F 9% 29.65 in - WNW 11.5 mph - N/A   Clear
6:00 PM 104.0 °F - 33.8 °F 9% 29.65 in - WNW 11.5 mph - N/A   Clear
7:00 PM 102.2 °F - 35.6 °F 10% 29.68 in - NW 12.7 mph - N/A   Clear
8:00 PM 98 °F - 37 °F 6% 29.65 in 6 mi NNW 13.4 mph - -  
8:00 PM 98.6 °F - 37.4 °F 12% 29.68 in - NNW 6.9 mph - N/A   Clear
9:00 PM 98.6 °F - 37.4 °F 12% 29.68 in - NNW 6.9 mph - N/A   Clear
10:00 PM 95.0 °F - 37.4 °F 13% 29.71 in - NW 10.4 mph - N/A   Clear
11:00 PM 92 °F - 38 °F 8% 29.68 in 6 mi WNW 22.4 mph - -  
11:00 PM 91.4 °F - 37.4 °F 15% 29.71 in - WNW 11.5 mph - N/A   Clear